• Join FlightAware (Why Join?)
  • Login
  • US Flag 
01:59AM EDT


 

Airport Tracker/Info


-or-


 

Live Flight TrackerFlight Track Log ✈ N724AE ✈ 05-Apr-2013 ✈ KDFW - KLFT

Flight Track Log - Related Links

Times and Time Zones

All times are in EDT time to prevent confusion due to time zone crossing. See the N724AE flight status page for this flight to view local times or setup timezone preferences in your user account.

Time Position Orientation Groundspeed Altitude Reporting Facility
EDT Latitude Longitude Course Direction KTS MPH feet Rate Location/Type
05:31PM 32.8833 -97.0333 77° East 164 189 1,500  Level Dallas / Fort Worth TRACON
05:32PM 32.8333 -97.0333 180° South 206 237 3,700 2,220 Climbing Dallas / Fort Worth TRACON
05:33PM 32.6878 -96.9558 103° East  Level FlightAware Approximate
05:33PM 32.8000 -96.9667 121° Southeast 259 298 6,000  Level Dallas / Fort Worth TRACON
05:34PM 32.6833 -96.8159 90° East  Level FlightAware Approximate
05:34PM 32.7833 -96.8833 103° East 279 321 8,400  Level Dallas / Fort Worth TRACON
05:35PM 32.7032 -96.6780 77° East  Level FlightAware Approximate
05:35PM 32.7833 -96.7833 90° East 297 342 10,600  Level Dallas / Fort Worth TRACON
05:36PM 32.7288 -96.5408 77° East  Level FlightAware Approximate
05:37PM 32.7769 -96.5842 92° East 322 371 12,500  Level Houston Center
05:38PM 32.7694 -96.4536 94° East 370 426 13,500 1,080 Climbing Houston Center
05:39PM 32.7614 -96.3206 94° East 391 450 14,800 1,200 Climbing Houston Center
05:40PM 32.7397 -96.1853 101° East 397 457 16,000 1,140 Climbing Houston Center
05:41PM 32.7175 -96.0511 101° East 408 470 17,200 1,260 Climbing Houston Center
05:42PM 32.6931 -95.9150 102° East 411 473 18,500 1,260 Climbing Fort Worth Center
05:43PM 32.6725 -95.7797 100° East 411 473 19,700 1,380 Climbing Fort Worth Center
05:44PM 32.6561 -95.6417 98° East 411 473 21,300 1,500 Climbing Fort Worth Center
05:45PM 32.6664 -95.5008 85° East 416 479 22,800 1,500 Climbing Fort Worth Center
05:46PM 32.6747 -95.3650 86° East 424 488 24,300 1,440 Climbing Fort Worth Center
05:47PM 32.6831 -95.2289 86° East 424 488 25,700 1,260 Climbing Fort Worth Center
05:48PM 32.6908 -95.0906 86° East 424 488 26,900 600 Climbing Fort Worth Center
05:49PM 32.7006 -94.9397 86° East 430 495 27,000  Climbing Fort Worth Center
05:50PM 32.7058 -94.7914 88° East 437 503 27,000  Level Fort Worth Center
05:51PM 32.6631 -94.6447 109° East 453 521 27,000  Level Fort Worth Center
05:52PM 32.6117 -94.4983 113° Southeast 459 528 27,000  Level Fort Worth Center
05:53PM 32.5581 -94.3472 113° Southeast 475 547 27,000  Level Fort Worth Center
05:54PM 32.5083 -94.1986 112° Southeast 480 552 27,000  Level Fort Worth Center
05:55PM 32.4567 -94.0503 112° Southeast 486 559 27,000  Level Fort Worth Center
05:56PM 32.4067 -93.8997 111° Southeast 493 567 27,000  Level Fort Worth Center
05:57PM 32.3400 -93.7619 120° Southeast 487 560 27,000  Level Fort Worth Center
05:58PM 32.2247 -93.6733 147° Southeast 471 542 27,000  Level Fort Worth Center
06:00PM 32.0444 -93.5264 145° Southeast 489 563 27,000  Level Houston Center
06:01PM 31.9336 -93.4322 144° Southeast 490 564 27,000  Level Houston Center
06:02PM 31.8233 -93.3381 144° Southeast 490 564 27,000  Level Houston Center
06:03PM 31.6967 -93.2303 144° Southeast 491 565 27,000  Level Houston Center
06:04PM 31.5856 -93.1356 144° Southeast 493 567 27,000  Level Houston Center
06:05PM 31.4736 -93.0411 144° Southeast 495 570 27,000  Level Houston Center
06:06PM 31.3611 -92.9467 144° Southeast 496 571 27,000 -120 Level Houston Center
06:07PM 31.2494 -92.8522 144° Southeast 495 570 26,800 -1,260 Descending Houston Center
06:08PM 31.1417 -92.7625 145° Southeast 483 556 24,400 -2,880 Descending Houston Center
06:09PM 31.0214 -92.6619 144° Southeast 456 525 20,900 -3,120 Descending Houston Center
06:10PM 30.9250 -92.5822 145° Southeast 435 501 18,000 -2,820 Descending Houston Center
06:11PM 30.8333 -92.5050 144° Southeast 417 480 15,100 -2,820 Descending Houston Center
06:12PM 30.7450 -92.4311 144° Southeast 397 457 12,200 -1,980 Descending Houston Center
06:13PM 30.6406 -92.3456 145° Southeast 386 444 11,100 -840 Descending Houston Center
06:14PM 30.5619 -92.2781 144° Southeast 359 413 10,500 -1,020 Descending Houston Center
06:15PM 30.4933 -92.2236 146° Southeast 310 357 9,000 -1,920 Descending Houston Center
06:16PM 30.4292 -92.1703 144° Southeast 291 335 6,600 -2,280 Descending Houston Center
06:17PM 30.3678 -92.1200 145° Southeast 278 320 4,400 -2,160 Descending Houston Center